Terminal Aerodrome Forecast
Issued by NWS

Home | Current Version | Previous Version | Text Only | Print | Product List | Glossary On
Versions: 1 2 3 4 5 6 7 8 9 10 11 12 13 14 15 16 17 18 19 20 21 22 23 24 25 26 27 28 29 30 31
979
FTAK31 PAFA 131123
TAFASC
TAF
PASC 131123Z 1312/1412 07037G45KT 1/2SM BLSN VV006
      TEMPO 1312/1316 1/4SM BLSN VV004=

USA.gov is the U.S. government's official web portal to all federal, state and local government web resources and services.